Dewpoint
0 0 0 0 0 0 -0 -0 -1 -1 -1 -2 -2 -3 -3 -4 -6 -8 -10 -3 -1 -1 -1 0 -0 0 -1 -2 -3 -3 -3 -3 -5 -6 -7 -10 -9 -9 -8 -7 5 12 12 12 13
-2 -1 -1 -1 -1 -1 -1 -2 -2 -2 -3 -3 -4 -5 -4 -2 -5 -10 -2 -1 -0 0 0 1 1 1 0 -1 -1 -3 -3 -5 -7 -8 -8 -9 -11 -11 -8 -7 12 13 12 12 13
6 6 6 6 6 5 6 5 3 3 2 3 4 5 5 6 3 -1 -0 -2 -4 -3 -1 1 0 -1 -2 -2 -2 -2 -1 -4 -5 -8 -9 -9 -10 -11 -11 -9 -0 12 13 13 13
9 9 8 8 7 7 7 7 7 8 8 7 7 7 6 7 6 2 1 -2 0 -0 -4 -4 -2 -2 -1 -1 -2 -1 -3 -4 -6 -8 -9 -9 -10 -10 -11 -10 -10 -1 8 12 12
8 8 7 7 7 7 7 7 6 6 7 7 7 6 6 8 7 3 4 3 1 1 2 1 0 -0 1 -2 -1 -1 -2 -2 -3 -3 -5 -7 -9 -10 -11 -11 -11 -2 11 12 12
8 7 7 7 6 6 6 6 6 6 6 6 6 6 8 9 4 3 6 5 2 2 3 4 4 3 1 -0 0 -1 -2 -2 -3 -3 -4 -5 -7 -8 -9 -10 -11 -4 7 11 11
7 6 6 6 6 5 5 4 5 5 5 5 5 6 8 6 3 3 3 4 4 5 5 5 5 5 4 3 1 -1 1 -1 -2 -2 -3 -4 -4 -7 -9 -10 -10 -10 5 11 11
6 5 5 5 4 3 3 3 4 5 5 5 6 6 7 4 4 3 2 3 3 4 4 5 6 6 6 5 4 4 2 3 -1 -2 -3 -4 -2 -6 -7 -9 -10 -10 -0 10 10
4 3 3 2 1 2 3 4 4 5 5 6 5 7 7 6 6 3 5 6 6 6 6 6 6 6 6 7 8 5 6 3 1 -2 -3 -4 -2 -4 -5 -8 -9 -10 -6 9 10
1 0 -1 -3 -3 -2 -0 1 3 4 4 6 6 7 5 1 3 4 5 6 6 6 5 6 6 7 6 7 10 7 5 3 2 -1 -2 -2 -2 -4 -5 -8 -8 -9 -9 9 10
-0 -1 -1 -1 -1 -2 -4 -2 4 5 6 5 6 5 3 4 5 5 4 5 6 6 7 5 8 10 7 6 6 5 4 4 2 1 2 2 1 -1 -5 -7 -7 -8 -8 -7 10
1 1 -0 -0 -0 -2 -3 -4 3 4 4 4 5 5 5 2 5 2 4 4 5 7 6 7 9 7 6 6 6 6 6 5 3 2 2 2 1 -1 -3 -4 -6 -7 -8 -4 5
2 1 1 1 -1 -4 -1 0 -1 2 3 1 -0 1 4 5 5 5 3 4 4 6 7 8 7 5 5 6 6 6 7 6 6 4 2 2 2 1 -1 -2 -2 -4 -7 -8 -2
1 1 1 0 -4 2 3 2 1 1 4 -3 -4 -5 -1 0 1 0 3 4 3 5 6 6 4 5 5 5 5 7 4 5 5 6 9 5 9 5 4 3 2 -1 -2 -7 -5
1 1 0 -1 1 2 2 3 2 1 1 -9 -10 -11 -7 -4 -4 -3 -3 2 3 4 4 6 4 4 5 4 3 4 2 3 5 9 10 8 11 7 4 5 3 1 -0 -0 -2
1 -0 -1 -1 -2 -2 -1 2 2 4 4 -3 -7 -4 -4 -5 -5 -3 -1 -2 0 2 3 4 2 2 3 3 2 2 3 6 7 10 12 9 9 8 5 4 3 1 0 0 -1
0 -1 -1 -1 -2 1 2 2 3 5 -5 -5 -6 -7 -3 -2 -3 -4 -2 1 2 5 5 4 3 2 1 3 2 2 5 11 12 12 10 5 9 8 3 4 3 2 1 -0 -1
0 -0 -1 -1 -2 0 1 3 4 -1 -2 -6 -4 -3 -2 -4 -3 -2 -1 0 1 2 4 6 7 3 1 3 4 4 4 9 9 8 7 3 6 4 2 1 1 0 0 -0 -1
-1 -1 -1 -2 -2 -1 2 3 4 1 -4 -3 1 0 -1 -4 -3 -4 -2 1 1 -0 6 7 5 1 0 1 2 4 6 4 8 7 9 6 4 1 1 3 3 -0 -3 -1 -1
-0 -0 -1 -2 -1 -0 2 2 2 -1 -2 -2 4 2 2 -1 0 0 0 -0 3 2 5 7 9 6 3 2 3 4 3 7 8 11 11 9 6 5 8 7 5 3 1 -1 3
0 -0 -2 -3 1 2 2 1 -0 -1 -2 -1 4 5 2 1 1 2 2 3 3 3 3 5 8 7 5 6 5 5 7 9 9 9 10 10 7 7 8 7 7 6 1 0 2
0 -0 -2 1 2 1 2 1 -2 -2 -4 0 2 1 2 2 3 1 3 1 3 3 5 4 6 8 6 3 5 6 8 8 9 10 9 9 10 7 6 6 6 6 6 4 2
-0 -1 -2 -0 1 1 2 2 -0 -2 -3 3 3 2 1 1 2 1 2 0 3 4 4 3 6 5 5 5 4 6 6 6 6 5 8 9 9 7 6 5 4 6 4 4 2
-1 -0 -1 -0 0 -0 -0 1 0 -0 -2 -2 2 2 3 2 -1 2 -1 -3 -2 0 3 3 4 5 5 5 4 5 2 2 6 7 7 8 6 5 4 6 4 4 4 3 3
-1 -1 -1 -0 -1 -1 -1 -1 1 2 -1 1 2 2 -1 0 -2 -1 -1 -2 -3 1 2 3 4 1 2 -0 0 1 -0 1 2 4 7 3 4 3 2 5 5 4 4 4 3
-2 -1 -1 -1 -1 -1 -1 -1 -1 1 1 2 1 1 -1 -0 0 -0 -1 -2 -3 -1 -1 1 3 3 1 -1 -2 -0 -2 -2 -2 -1 1 5 6 3 1 0 3 4 4 3 1
-2 -1 -1 -2 -2 -1 0 0 1 -1 0 -1 -2 -3 -3 -3 -2 -2 -2 -3 -4 -4 -4 0 2 3 2 -2 -1 1 -1 -2 -3 -5 1 3 2 1 1 -0 -0 3 4 3 2
Wind_Speed
13 13 13 13 13 13 14 14 15 16 18 19 20 21 22 25 25 23 23 15 17 21 24 23 14 13 15 12 15 23 8 11 7 13 19 21 9 13 10 11 5 4 16 11 34
14 14 14 14 14 15 15 15 16 16 18 19 20 21 22 24 26 24 5 8 11 11 11 8 12 13 16 20 15 6 5 10 10 16 16 13 17 21 7 13 7 13 15 26 37
15 15 15 15 15 15 16 16 16 17 17 18 19 21 21 22 22 4 3 16 16 16 12 11 10 16 17 23 20 10 10 12 21 25 27 11 13 28 12 6 9 21 30 35 37
17 16 16 17 16 16 17 18 18 19 20 20 21 22 22 19 6 6 11 23 21 20 15 16 17 16 6 7 18 13 24 23 23 28 21 11 24 13 21 16 25 14 25 36 39
18 18 18 19 19 19 20 21 21 22 22 22 23 25 25 7 22 25 22 13 12 10 10 13 18 17 9 9 16 10 7 22 29 29 29 26 15 17 21 26 28 11 26 35 35
19 19 19 20 20 21 21 22 23 23 24 24 25 27 22 16 30 16 6 14 14 15 18 19 16 20 18 15 11 15 23 24 31 31 29 21 22 22 26 25 25 18 28 37 38
20 19 19 20 21 21 21 21 21 21 21 22 23 24 23 38 32 33 32 30 28 26 26 26 23 22 17 15 17 15 15 21 20 16 13 26 23 19 34 35 35 27 28 37 38
20 20 20 20 20 19 19 19 18 18 18 17 16 17 16 29 27 30 25 32 34 37 32 26 22 24 24 17 19 13 11 14 5 10 20 18 30 14 30 35 33 34 29 38 39
20 19 18 18 18 18 18 16 15 15 15 15 15 12 17 7 16 11 7 12 9 15 21 23 22 27 17 9 9 9 10 13 16 14 16 12 27 20 31 33 27 35 30 40 40
15 15 13 13 14 15 16 16 15 18 17 14 16 10 21 19 9 11 8 12 8 11 12 16 13 5 4 5 11 8 10 13 18 16 13 16 22 21 28 25 22 28 22 40 44
12 9 7 6 7 8 9 7 6 6 12 13 14 17 12 11 12 7 8 13 14 18 8 16 10 16 16 16 20 19 18 22 19 17 16 22 21 18 11 10 11 21 21 23 43
11 8 5 4 5 6 7 3 0 12 14 23 34 41 42 38 23 29 18 13 14 15 11 11 24 19 17 19 23 23 24 25 22 17 14 19 26 23 11 8 14 20 20 22 37
11 8 4 2 3 7 4 8 7 12 8 19 34 36 39 33 39 42 32 29 17 18 17 19 22 17 20 21 23 21 23 20 20 15 18 18 26 21 14 11 20 25 33 31 35
12 9 6 2 2 4 3 8 5 8 4 8 8 13 26 20 12 33 44 29 17 24 17 20 16 19 19 26 16 21 18 21 21 16 17 4 15 29 15 18 18 16 22 38 34
13 11 8 5 6 7 2 5 1 1 4 7 5 9 4 21 5 6 28 31 30 27 10 32 16 16 21 23 15 24 14 20 20 4 6 22 4 26 4 16 11 12 26 31 37
15 13 12 11 8 7 4 5 2 3 10 7 2 7 7 25 12 5 8 31 24 23 17 30 20 15 27 22 20 19 20 9 6 3 8 30 7 14 19 17 12 13 29 36 32
15 15 16 13 12 4 3 3 1 6 5 6 9 8 9 12 17 16 12 10 15 10 20 25 34 28 26 21 24 21 13 5 4 7 12 17 8 18 27 9 16 14 25 33 38
15 16 17 18 13 11 5 2 9 11 20 16 21 23 16 16 16 14 17 16 18 20 10 17 18 28 17 29 22 10 18 10 14 8 14 12 11 18 10 20 37 45 33 31 37
18 19 23 22 18 16 6 7 5 8 8 3 15 12 15 13 14 13 19 14 15 14 17 10 26 19 12 20 21 31 17 22 14 21 12 13 16 15 13 12 19 1 18 17 1
15 17 28 22 18 19 8 18 7 10 16 15 3 6 11 13 10 11 8 7 12 15 10 3 5 17 18 17 15 14 5 11 13 13 14 8 13 6 9 12 14 16 12 26 12
15 6 12 8 17 15 8 8 14 25 19 5 7 5 6 9 9 11 3 7 12 12 8 8 5 6 6 5 9 8 9 3 6 6 6 5 4 3 5 3 8 11 23 30 14
14 3 5 12 11 4 11 8 13 17 14 3 5 16 14 5 9 6 5 12 13 8 8 2 4 4 3 13 4 1 1 3 3 6 1 2 3 1 4 7 6 9 19 25 17
11 11 6 15 5 11 6 10 13 17 14 6 5 4 1 1 3 7 7 9 17 14 4 7 4 4 7 1 10 5 4 7 3 3 4 5 2 1 3 4 3 1 3 7 12
9 3 11 13 16 8 10 12 17 23 20 16 5 2 3 1 6 5 10 5 11 6 10 8 5 4 3 6 4 5 11 9 3 2 5 3 4 8 9 5 7 12 15 12 7
17 5 7 4 8 11 10 7 13 12 6 4 8 12 5 4 1 2 6 7 7 10 4 5 5 8 13 17 12 12 16 9 8 9 8 16 12 11 3 6 11 24 18 14 15
8 4 10 3 11 13 15 16 18 12 4 4 4 2 5 2 2 2 3 1 4 3 6 5 5 5 5 13 13 16 13 13 13 12 16 16 18 16 12 20 15 22 21 15 19
12 7 1 6 5 5 4 8 6 2 2 7 4 4 4 1 9 10 13 14 14 11 7 2 4 6 7 5 8 6 13 12 11 13 8 9 17 17 15 16 13 18 20 21 20
Wind_Direction
256 262 268 273 279 285 290 294 298 303 306 311 313 315 316 317 314 314 308 288 287 286 292 301 297 305 317 316 305 298 269 262 254 271 272 300 331 322 291 309 14 42 149 182 165
257 262 266 271 276 281 284 288 293 297 302 306 309 313 317 321 322 323 342 7 347 324 303 304 314 328 319 307 296 285 263 249 239 255 272 305 322 317 327 292 68 88 127 153 165
256 260 264 269 273 277 282 285 289 293 297 302 306 310 314 323 330 150 53 343 334 313 307 290 297 306 295 289 278 277 268 283 283 276 282 301 315 315 317 307 272 174 160 167 175
257 259 263 269 274 277 283 286 288 291 293 296 300 304 308 319 287 217 274 308 315 312 288 286 293 282 285 269 277 276 279 278 288 293 298 291 296 290 288 289 291 286 222 180 181
260 264 266 271 275 278 281 284 287 290 292 295 297 301 306 278 261 290 291 308 306 293 304 289 276 289 265 275 298 290 291 309 306 304 302 307 287 278 269 278 279 290 198 186 187
261 265 269 273 277 281 285 289 291 290 293 294 294 294 295 267 291 284 248 263 270 271 276 278 284 297 300 275 281 301 295 291 292 289 289 293 283 289 282 285 264 251 213 200 201
260 264 269 275 279 282 284 285 286 289 290 293 293 294 278 259 280 284 273 266 261 252 263 255 269 280 284 305 295 296 309 301 278 280 291 289 272 254 264 266 266 254 216 202 203
261 264 268 274 278 280 282 283 285 288 290 292 293 290 266 291 295 278 278 266 254 257 260 267 266 266 265 271 298 300 290 274 232 263 265 254 268 263 261 248 243 243 215 202 200
261 263 267 272 277 278 279 283 290 290 292 294 288 295 278 300 270 297 271 275 295 253 251 254 251 247 247 252 272 233 263 257 284 245 259 240 267 256 255 241 237 230 221 195 198
256 265 270 277 281 285 287 287 286 283 280 275 264 281 252 256 283 285 277 276 271 269 245 214 228 221 211 197 230 219 239 251 262 271 272 262 270 269 250 225 235 227 234 192 190
250 255 267 288 297 309 314 322 323 291 233 214 212 214 258 274 260 250 258 253 240 246 236 238 225 223 212 216 235 246 260 268 272 279 288 285 286 279 271 227 233 236 226 232 190
236 238 266 297 323 329 324 282 122 322 288 261 263 257 258 262 273 250 228 280 231 239 243 245 251 230 226 233 237 235 244 255 267 259 248 276 281 276 259 255 243 224 233 219 190
223 236 245 255 357 348 335 333 260 327 283 273 249 247 244 238 245 245 242 247 245 250 221 231 244 225 240 247 252 261 258 269 271 277 267 270 275 281 267 268 255 247 239 237 208
219 219 204 183 293 83 356 5 284 293 288 273 216 253 229 224 267 251 232 224 234 242 236 251 260 248 253 255 248 255 255 265 269 279 274 59 279 278 274 277 277 276 242 227 219
215 210 209 200 166 145 64 18 272 90 332 269 225 218 162 177 272 231 227 210 233 231 197 241 234 236 251 249 247 259 280 268 268 197 13 276 229 277 211 262 259 256 256 261 239
214 215 214 213 207 203 284 359 59 89 243 279 273 175 159 201 231 263 186 207 233 234 241 256 255 243 249 263 265 271 279 294 299 153 237 258 207 276 267 253 248 244 252 259 261
226 223 224 213 218 161 273 258 188 203 234 241 239 250 214 215 224 232 258 201 203 207 232 244 253 253 251 263 265 261 265 259 237 211 244 262 202 233 267 258 247 258 261 262 273
223 226 231 232 231 208 278 138 233 233 239 303 311 317 304 301 269 236 224 241 206 222 230 230 258 239 219 219 238 237 236 234 251 242 254 249 231 252 251 253 255 266 276 262 261
220 228 236 234 229 222 204 225 223 222 279 255 332 301 284 260 272 292 268 233 278 258 248 274 249 264 254 223 218 244 235 244 257 262 269 255 266 303 320 13 359 312 55 32 284
212 233 249 247 241 219 211 231 251 248 278 320 278 310 310 318 336 341 341 34 259 250 39 255 263 274 280 291 287 265 261 242 232 243 246 246 255 237 36 8 12 13 20 29 91
210 233 257 238 205 214 222 223 230 249 264 284 277 263 300 328 322 341 299 35 20 352 348 3 278 288 9 227 274 247 277 317 259 208 212 231 234 85 90 40 6 7 22 32 53
196 209 294 173 194 231 229 192 236 259 252 272 273 255 252 288 300 292 264 326 5 4 347 58 279 295 250 296 282 144 150 289 252 253 213 207 206 290 35 34 1 14 10 15 49
192 215 228 199 215 229 255 238 243 259 248 162 223 236 6 264 276 315 352 18 11 3 34 17 314 334 309 114 25 36 353 340 278 244 184 229 216 62 285 271 293 17 96 17 55
183 190 215 218 235 230 245 258 257 246 241 234 191 245 246 223 202 271 289 313 345 272 277 277 223 240 244 313 305 300 314 317 40 279 8 256 267 272 255 216 290 293 278 238 189
195 210 181 198 220 236 229 259 290 232 186 44 178 223 258 216 290 280 2 347 326 12 352 332 256 233 232 264 272 286 301 311 301 265 267 277 276 284 234 194 227 236 243 235 207
173 167 196 180 214 206 221 231 240 265 216 167 140 292 71 118 99 332 349 245 248 334 353 351 320 330 301 259 263 250 256 276 271 273 262 259 269 263 279 267 211 206 215 237 206
181 191 148 227 208 187 214 216 214 228 140 229 191 195 228 252 182 212 231 247 254 277 279 284 287 320 269 312 298 252 237 231 250 249 252 281 278 277 270 254 242 210 211 232 245
Height
1522 1523 1523 1523 1523 1524 1524 1523 1522 1522 1522 1521 1519 1517 1515 1512 1510 1510 1508 1508 1507 1505 1504 1505 1505 1503 1501 1499 1500 1499 1504 1506 1501 1494 1480 1475 1474 1469 1465 1464 1463 1465 1464 1466 1476
1518 1519 1520 1520 1520 1520 1520 1520 1520 1518 1518 1517 1516 1514 1513 1509 1506 1504 1504 1504 1504 1503 1501 1503 1503 1501 1501 1499 1498 1498 1503 1495 1485 1481 1476 1473 1472 1470 1468 1464 1470 1470 1467 1468 1473
1515 1516 1516 1517 1517 1517 1517 1516 1516 1516 1514 1513 1512 1512 1511 1508 1506 1502 1501 1502 1503 1503 1500 1501 1503 1501 1498 1497 1494 1489 1491 1483 1479 1477 1471 1467 1467 1466 1464 1465 1465 1464 1462 1465 1470
1511 1511 1512 1513 1513 1513 1513 1513 1512 1511 1511 1510 1508 1507 1507 1508 1511 1500 1499 1499 1499 1500 1497 1499 1501 1499 1495 1495 1489 1489 1480 1478 1475 1473 1469 1465 1462 1463 1462 1462 1461 1460 1459 1456 1461
1507 1508 1508 1509 1509 1509 1509 1509 1508 1508 1509 1507 1505 1503 1503 1504 1499 1498 1497 1498 1497 1498 1497 1498 1499 1493 1492 1488 1485 1482 1477 1473 1471 1470 1466 1462 1460 1458 1457 1458 1459 1460 1461 1460 1461
1502 1503 1504 1505 1505 1505 1505 1505 1504 1504 1504 1503 1502 1500 1499 1497 1491 1492 1492 1493 1495 1495 1495 1496 1494 1492 1488 1484 1484 1479 1474 1470 1468 1464 1461 1460 1453 1456 1454 1455 1454 1456 1454 1455 1454
1498 1498 1500 1502 1501 1501 1501 1500 1500 1501 1500 1498 1499 1495 1492 1482 1487 1488 1487 1487 1488 1489 1488 1488 1490 1492 1489 1485 1478 1476 1476 1467 1464 1461 1460 1458 1446 1449 1446 1448 1448 1450 1448 1451 1454
1494 1494 1495 1497 1497 1497 1497 1497 1496 1496 1496 1494 1495 1493 1481 1478 1479 1475 1475 1474 1476 1480 1482 1484 1487 1486 1485 1484 1481 1481 1476 1471 1456 1456 1453 1458 1439 1439 1438 1438 1438 1440 1440 1444 1447
1490 1491 1490 1491 1493 1494 1494 1493 1494 1492 1491 1492 1492 1492 1478 1473 1471 1469 1469 1468 1470 1473 1476 1478 1481 1479 1483 1484 1486 1481 1478 1468 1456 1450 1448 1450 1434 1429 1427 1428 1428 1429 1432 1434 1440
1486 1488 1487 1487 1489 1490 1490 1490 1491 1489 1488 1488 1489 1493 1475 1467 1467 1465 1466 1469 1469 1470 1473 1474 1473 1474 1475 1483 1484 1476 1473 1464 1454 1447 1445 1441 1430 1424 1419 1414 1416 1420 1424 1425 1429
1482 1484 1485 1485 1487 1488 1490 1489 1490 1487 1484 1478 1473 1466 1461 1464 1462 1461 1465 1469 1468 1470 1471 1469 1472 1467 1467 1465 1461 1460 1461 1453 1442 1438 1441 1430 1426 1419 1416 1411 1412 1414 1415 1419 1421
1480 1481 1481 1483 1487 1487 1488 1489 1490 1490 1476 1471 1468 1460 1458 1462 1457 1456 1461 1464 1463 1464 1468 1471 1457 1454 1456 1456 1452 1450 1453 1445 1433 1431 1434 1425 1418 1408 1410 1408 1406 1405 1409 1412 1416
1477 1479 1479 1481 1484 1487 1488 1487 1486 1487 1482 1455 1452 1444 1449 1455 1443 1439 1454 1453 1455 1456 1459 1462 1433 1445 1449 1445 1445 1443 1438 1436 1435 1428 1423 1422 1416 1408 1402 1399 1400 1398 1399 1402 1406
1471 1476 1478 1481 1485 1484 1488 1487 1487 1486 1487 1447 1439 1429 1435 1442 1438 1431 1437 1447 1447 1447 1453 1445 1440 1442 1441 1433 1439 1442 1430 1430 1427 1433 1438 1425 1433 1400 1404 1400 1398 1394 1393 1394 1395
1468 1472 1475 1478 1481 1484 1486 1486 1487 1486 1511 1436 1426 1425 1426 1436 1427 1420 1422 1439 1433 1435 1448 1419 1430 1440 1433 1425 1431 1426 1426 1428 1424 1435 1445 1420 1442 1385 1397 1395 1394 1389 1387 1387 1387
1464 1467 1472 1476 1479 1483 1484 1485 1488 1494 1486 1438 1424 1422 1425 1430 1424 1421 1423 1428 1429 1438 1441 1422 1431 1430 1420 1424 1422 1420 1423 1424 1426 1434 1441 1410 1427 1414 1383 1383 1383 1380 1379 1376 1377
1464 1465 1468 1471 1477 1481 1482 1486 1494 1481 1442 1430 1425 1422 1422 1421 1420 1421 1422 1424 1432 1439 1435 1428 1415 1420 1419 1426 1417 1421 1430 1446 1442 1433 1423 1401 1421 1400 1362 1377 1378 1373 1369 1366 1367
1462 1464 1466 1469 1473 1478 1482 1488 1478 1453 1442 1423 1428 1431 1432 1428 1417 1412 1416 1419 1416 1420 1421 1428 1426 1399 1401 1406 1405 1414 1416 1431 1422 1426 1413 1399 1404 1374 1373 1373 1370 1367 1362 1356 1353
1455 1461 1461 1465 1469 1475 1482 1477 1464 1453 1444 1441 1445 1432 1427 1422 1421 1417 1409 1410 1411 1411 1420 1420 1407 1384 1388 1393 1399 1394 1415 1391 1415 1408 1417 1397 1377 1372 1371 1372 1367 1357 1357 1353 1347
1452 1453 1454 1463 1468 1471 1472 1464 1458 1450 1449 1446 1454 1446 1438 1430 1426 1421 1419 1417 1415 1411 1421 1422 1418 1398 1395 1394 1392 1391 1388 1407 1406 1417 1411 1397 1388 1390 1382 1384 1377 1369 1364 1362 1357
1450 1452 1447 1455 1462 1464 1453 1454 1449 1447 1452 1452 1454 1448 1444 1444 1436 1432 1426 1427 1425 1421 1419 1426 1420 1400 1395 1391 1389 1390 1395 1396 1402 1403 1400 1403 1400 1388 1386 1385 1384 1378 1372 1369 1371
1447 1450 1446 1449 1454 1455 1446 1445 1445 1443 1447 1449 1452 1449 1448 1446 1444 1438 1438 1429 1429 1430 1430 1431 1427 1413 1403 1394 1390 1393 1399 1404 1402 1399 1387 1395 1391 1384 1383 1380 1381 1374 1377 1378 1379
1441 1442 1445 1448 1443 1444 1450 1442 1441 1442 1440 1449 1448 1447 1443 1444 1446 1439 1438 1435 1435 1434 1438 1436 1428 1421 1400 1391 1400 1408 1411 1414 1411 1412 1392 1395 1395 1385 1387 1382 1378 1377 1374 1381 1383
1437 1437 1441 1441 1443 1442 1444 1446 1436 1435 1433 1437 1443 1447 1447 1444 1443 1445 1439 1434 1433 1439 1443 1443 1428 1424 1424 1415 1417 1416 1409 1406 1404 1408 1403 1401 1396 1386 1380 1373 1373 1376 1377 1376 1380
1430 1427 1433 1436 1434 1439 1444 1443 1435 1430 1422 1433 1439 1441 1437 1439 1437 1436 1436 1438 1437 1437 1439 1437 1425 1415 1412 1407 1408 1413 1405 1403 1401 1405 1408 1396 1389 1376 1371 1368 1376 1378 1375 1375 1376
1425 1421 1428 1427 1425 1433 1437 1431 1430 1431 1428 1430 1435 1443 1436 1440 1441 1445 1445 1443 1442 1438 1441 1439 1427 1428 1428 1409 1405 1410 1398 1399 1396 1393 1391 1388 1378 1366 1368 1371 1371 1368 1366 1370 1371
1417 1418 1422 1420 1422 1425 1426 1423 1423 1424 1430 1429 1430 1435 1435 1436 1437 1439 1441 1441 1439 1435 1436 1439 1438 1429 1417 1405 1410 1417 1398 1392 1384 1381 1381 1384 1373 1368 1370 1364 1360 1359 1359 1360 1362